Location: *
(48.8489°N, 2.3218°E)
Time: 21:45:27
(UTC+00:00)

Terra - Pass Details

Date: 23 August 2019
Orbit: 701 x 703 km, 98.2° (Epoch: 23 October)

Event Time Altitude Azimuth Distance (km) Brightness Sun altitude
Exits shadow 21:05:10 36° 105° (ESE) 1,110 2.4 -19.4°
Maximum altitude 21:06:21 43° 68° (ENE) 985 2.4 -19.5°
Drops below altitude 10° 21:10:52 10° 358° (N) 2,184 5.0 -20.0°
Sets 21:13:13 0° 352° (N) 3,107 6.1 -20.3°
